Flag for Germany Weather past 2 weeks in Esslingen, Baden-Württemberg, Germany

Now
34 °F

Passing clouds.


Feels Like: 34 °F
Forecast: 33 / 40 °F
Wind: 2 mph from Southwest

Location: Stuttgart-Echterdingen

Current Time: Jan 28, 2015 at 2:55:26 AM

Latest Report: Jan 28, 2015 at 2:20 AM


Visibility: N/A

Pressure: 30.15 "Hg

Humidity: 93%

Dew point: 32 °F

Location of EsslingenLocation

Historic Weather in Esslingen — Graph

°F

Esslingen temperature yesterday

Maximum temperature yesterday: 37 °F (at 11:50 AM)
Minimum temperature yesterday: 34 °F (at 12:20 AM)
Average temperature yesterday: 35 °F

Past Weeks' High & Low Weather Summary

 TemperatureHumidityPressure
High57 °F (Jan 13, 1:50 PM)100% (Jan 15, 2:20 AM)30.39 "Hg (Jan 15, 2:20 AM)
Low27 °F (Jan 18, 6:20 AM)28% (Jan 13, 12:50 PM)29.68 "Hg (Jan 16, 2:20 PM)
Average36 °F85%29.99 "Hg
* Reported Jan 13 1:20 AM — Jan 28 1:20 AM, Esslingen, Weather by CustomWeather, © 2014

Note: Actual official high and low records may vary slightly from our data, if they occured in-between our weather recording intervals... More about our weather records

Advertising

Esslingen weather history for previous 24 hours

 ConditionsComfort  
Time TempWeatherWind HumidityBarometerVisibility
1:20 AM
Jan 28
34 °FPassing clouds.5 mph93%30.18 "HgN/A
12:50 AM34 °FPassing clouds.6 mph93%30.18 "HgN/A
12:20 AM34 °FPassing clouds.6 mph93%30.18 "HgN/A
11:50 PM
Jan 27
34 °FPartly cloudy.6 mph93%30.18 "HgN/A
11:20 PM34 °FLight snow. Partly cloudy.6 mph93%30.18 "HgN/A
10:50 PM34 °FLight snow. Partly cloudy.6 mph93%30.18 "HgN/A
10:20 PM34 °FPassing clouds.6 mph93%30.18 "HgN/A
9:50 PM34 °FLight snow. Passing clouds.8 mph93%30.18 "HgN/A
9:20 PM36 °FLight rain. Passing clouds.8 mph87%30.18 "HgN/A
8:50 PM36 °FPassing clouds.8 mph87%30.18 "HgN/A
8:20 PM36 °FSnow flurries. Partly cloudy.8 mph87%30.18 "HgN/A
7:50 PM36 °FSnow flurries. Passing clouds.10 mph87%30.18 "HgN/A
7:20 PM36 °FSnow flurries. Partly cloudy.13 mph87%30.18 "HgN/A
6:50 PM36 °FSnow flurries. Partly cloudy.12 mph87%30.18 "HgN/A
6:20 PM36 °FSnow flurries. Passing clouds.12 mph87%30.15 "HgN/A
5:50 PM36 °FSnow flurries. Passing clouds.13 mph87%30.18 "HgN/A
5:20 PM36 °FSnow flurries. Passing clouds.13 mph87%30.15 "HgN/A
4:50 PM36 °FPartly sunny.15 mph81%30.15 "HgN/A
4:20 PM36 °FPartly sunny.15 mph87%30.15 "HgN/A
3:50 PM36 °FSnow showers. Broken clouds.15 mph87%30.15 "Hg3 mi
3:20 PM37 °FSnow flurries. Broken clouds.14 mph75%30.15 "Hg6 mi
2:50 PM37 °FBroken clouds.15 mph75%30.15 "HgN/A
2:20 PM37 °FBroken clouds.10 mph75%30.15 "HgN/A
1:50 PM37 °FPartly sunny.12 mph75%30.15 "HgN/A
1:20 PM37 °FPartly sunny.12 mph75%30.15 "HgN/A
12:50 PM37 °FBroken clouds.8 mph81%30.18 "HgN/A
12:20 PM37 °FBroken clouds.14 mph75%30.18 "HgN/A
11:50 AM37 °FPartly sunny.13 mph75%30.18 "HgN/A
11:20 AM36 °FPartly sunny.9 mph81%30.18 "HgN/A
10:50 AM36 °FPartly sunny.7 mph81%30.18 "HgN/A
10:20 AM36 °FPartly sunny.5 mph81%30.18 "HgN/A
9:50 AM36 °FPartly sunny.5 mph81%30.18 "HgN/A
9:20 AM36 °FBroken clouds.5 mph81%30.18 "HgN/A
8:50 AM34 °FBroken clouds.10 mph87%30.15 "HgN/A
8:20 AM34 °FBroken clouds.10 mph87%30.15 "HgN/A
7:50 AM36 °FPartly cloudy.13 mph81%30.15 "HgN/A
7:20 AM36 °FPartly cloudy.9 mph87%30.15 "HgN/A
6:50 AM36 °FLight rain. Passing clouds.10 mph87%30.15 "Hg5 mi
6:20 AM36 °FPassing clouds.12 mph87%30.12 "HgN/A
5:50 AM36 °FPassing clouds.10 mph87%30.12 "HgN/A
5:20 AM34 °FLight rain. Passing clouds.10 mph93%30.12 "HgN/A
4:50 AM36 °FLight rain. Passing clouds.9 mph87%30.12 "HgN/A
4:20 AM36 °FPassing clouds.6 mph87%30.12 "HgN/A
3:50 AM36 °FLight rain. Passing clouds.7 mph87%30.09 "HgN/A
3:20 AM36 °FPassing clouds.10 mph87%30.09 "HgN/A
2:50 AM36 °FPassing clouds.13 mph87%30.09 "HgN/A
2:20 AM36 °FPassing clouds.12 mph87%30.09 "HgN/A
Weather by CustomWeather, © 2014

See weather overviewHow to use our weather pages